Location: Mohawk View
(42.7837°N, 73.7885°W)
Time: 16:25:21
(UTC+00:00)

SL-4 R/B - Pass Details

Date: 17 June 2021
Orbit: 428 x 662 km, 51.6° (Epoch: 01 August)

Event Time Altitude Azimuth Distance (km) Brightness Sun altitude
Rises 08:06:34 0° 300° (WNW) 2,522 5.3 -10.6°
Reaches altitude 10° 08:09:09 10° 317° (NW) 1,606 4.4 -10.3°
Maximum altitude 08:11:57 21° 8° (N) 1,057 4.2 -9.9°
Drops below altitude 10° 08:14:40 10° 60° (ENE) 1,546 5.7 -9.6°
Sets 08:17:06 0° 78° (ENE) 2,397 6.4 -9.3°
